Weather History for Galax, VA

Change the Weather History Date:

Friday, November 16, 2012

  Actual Average (KBLF) Record (KBLF)
Temperature  
Mean Temperature 42 °F 47 °F  
Max Temperature 55 °F 56 °F 73 °F (1988)
Min Temperature 30 °F 39 °F 13 °F (1967)
Degree Days  
Heating Degree Days 22 18  
Month to date heating degree days 248  
Since 1 July heating degree days 612  
Cooling Degree Days 0 0  
Month to date cooling degree days 0  
Year to date cooling degree days 851  
Moisture  
Dew Point 26 °F    
Average Humidity 58    
Maximum Humidity 100    
Minimum Humidity 21    
Precipitation  
Precipitation 0.00 in 0.09 in 0.84 in (2011)
Month to date precipitation 1.37  
Year to date precipitation 35.40  
Snow  
Snow 0.00 in - - ()
Month to date snowfall  
Since 1 July snowfall  
Since 1 September snowfall  
Snow Depth -    
Sea Level Pressure  
Sea Level Pressure 30.31 in    
Wind  
Wind Speed 3 mph (North)    
Max Wind Speed 10 mph    
Max Gust Speed -    
Visibility 10 miles    
Events      
T = Trace of Precipitation, MM = Missing Value Source: NWS Daily Summary

Daily Weather History Graph

Daily Weather History Graph

Search for Another Location

Airport:

Trip Planner

Search our weather history database for the weather conditions in past years. The results will help you decide how hot, cold, wet, or windy it might be!

Date:

Astronomy

Nov. 16, 2012 Rise Set
Actual Time 7:02 AM EST 5:13 PM EST
Civil Twilight 6:35 AM EST 5:40 PM EST
Nautical Twilight 6:03 AM EST 6:12 PM EST
Astronomical Twilight 5:33 AM EST 6:42 PM EST
Moon 9:54 AM EST (11/16) 8:11 PM EST (11/16)
Length of Visible Light 11h 05m
Length of Day
10h 10m
Waxing Crescent, 11% of the Moon is Illuminated
Nov 16
Waxing Crescent
Nov 20
First Quarter
Nov 28
Full
Dec 6
Last Quarter
Dec 13
New

Hourly Weather History & Observations

Time (EST) Temp. Windchill Dew Point Humidity Pressure Visibility Wind Dir Wind Speed Gust Speed Precip Events Conditions
12:15 AM 37.4 °F 34.9 °F 32.0 °F 81% 30.27 in 10.0 mi West 3.5 mph - N/A   Clear
12:35 AM 37.4 °F - 32.0 °F 81% 30.27 in 10.0 mi Calm Calm - N/A   Clear
12:55 AM 35.6 °F - 30.2 °F 81% 30.26 in 10.0 mi Calm Calm - N/A   Clear
1:15 AM 35.6 °F - 32.0 °F 87% 30.26 in 10.0 mi Calm Calm - N/A   Clear
1:35 AM 35.6 °F - 30.2 °F 81% 30.27 in 10.0 mi Calm Calm - N/A   Clear
1:55 AM 35.6 °F - 30.2 °F 81% 30.27 in 10.0 mi Calm Calm - N/A   Clear
2:15 AM 32.0 °F 28.7 °F 30.2 °F 93% 30.27 in 10.0 mi SSW 3.5 mph - N/A   Clear
2:35 AM 33.8 °F - 30.2 °F 87% 30.27 in 10.0 mi Calm Calm - N/A   Clear
2:55 AM 32.0 °F - 30.2 °F 93% 30.28 in 10.0 mi Calm Calm - N/A   Clear
3:15 AM 32.0 °F 28.7 °F 30.2 °F 93% 30.27 in 7.0 mi SSW 3.5 mph - N/A   Clear
3:35 AM 32.0 °F - 30.2 °F 93% 30.27 in 10.0 mi Calm Calm - N/A   Clear
3:55 AM 33.8 °F - 30.2 °F 87% 30.27 in 10.0 mi Calm Calm - N/A   Clear
4:15 AM 33.8 °F - 32.0 °F 93% 30.26 in 10.0 mi Calm Calm - N/A   Clear
4:35 AM 33.8 °F - 30.2 °F 87% 30.27 in 10.0 mi Calm Calm - N/A   Clear
4:55 AM 33.8 °F 30.8 °F 30.2 °F 87% 30.26 in 10.0 mi West 3.5 mph - N/A   Clear
5:15 AM 33.8 °F 30.8 °F 30.2 °F 87% 30.26 in 10.0 mi West 3.5 mph - N/A   Clear
5:35 AM 30.2 °F - 30.2 °F 100% 30.27 in 5.0 mi Calm Calm - N/A   Clear
5:55 AM 33.8 °F - 30.2 °F 87% 30.27 in 10.0 mi Calm Calm - N/A   Clear
6:15 AM 33.8 °F - 30.2 °F 87% 30.27 in 10.0 mi Calm Calm - N/A   Clear
6:35 AM 33.8 °F - 30.2 °F 87% 30.27 in 10.0 mi Calm Calm - N/A   Clear
6:55 AM 33.8 °F 30.8 °F 30.2 °F 87% 30.28 in 10.0 mi WNW 3.5 mph - N/A   Clear
7:15 AM 35.6 °F 30.7 °F 30.2 °F 81% 30.28 in 10.0 mi NNW 5.8 mph - N/A   Clear
7:35 AM 30.2 °F - 28.4 °F 93% 30.29 in 10.0 mi Calm Calm - N/A   Clear
7:55 AM 33.8 °F - 30.2 °F 87% 30.30 in 10.0 mi Calm Calm - N/A   Clear
8:15 AM 35.6 °F - 30.2 °F 81% 30.31 in 10.0 mi Calm Calm - N/A   Clear
8:35 AM 35.6 °F 32.8 °F 32.0 °F 87% 30.31 in 10.0 mi West 3.5 mph - N/A   Clear
8:55 AM 39.2 °F 37.0 °F 32.0 °F 75% 30.31 in 10.0 mi North 3.5 mph - N/A   Clear
9:15 AM 39.2 °F 33.0 °F 32.0 °F 75% 30.31 in 10.0 mi North 9.2 mph - N/A   Clear
9:35 AM 41.0 °F 37.1 °F 32.0 °F 70% 30.32 in 10.0 mi North 5.8 mph - N/A   Clear
9:55 AM 42.8 °F 38.6 °F 32.0 °F 66% 30.32 in 10.0 mi NNW 6.9 mph - N/A   Clear
10:15 AM 44.6 °F 42.2 °F 32.0 °F 61% 30.32 in 10.0 mi NE 4.6 mph - N/A   Clear
10:35 AM 46.4 °F 43.5 °F 30.2 °F 53% 30.33 in 10.0 mi NNW 5.8 mph - N/A   Clear
10:55 AM 46.4 °F 42.9 °F 28.4 °F 50% 30.33 in 10.0 mi North 6.9 mph - N/A   Clear
11:15 AM 48.2 °F - 28.4 °F 46% 30.33 in 10.0 mi NNW 6.9 mph - N/A   Clear
11:35 AM 48.2 °F - 28.4 °F 46% 30.32 in 10.0 mi North 6.9 mph - N/A   Clear
11:55 AM 50.0 °F - 24.8 °F 37% 30.31 in 10.0 mi North 6.9 mph - N/A   Clear
12:15 PM 50.0 °F - 24.8 °F 37% 30.31 in 10.0 mi North 5.8 mph - N/A   Clear
12:35 PM 51.8 °F - 21.2 °F 30% 30.31 in 10.0 mi North 5.8 mph - N/A   Clear
12:55 PM 51.8 °F - 19.4 °F 28% 30.30 in 10.0 mi North 6.9 mph - N/A   Clear
1:15 PM 51.8 °F - 19.4 °F 28% 30.30 in 10.0 mi North 10.4 mph - N/A   Clear
1:35 PM 53.6 °F - 19.4 °F 26% 30.29 in 10.0 mi NNW 6.9 mph - N/A   Clear
1:55 PM 53.6 °F - 19.4 °F 26% 30.29 in 10.0 mi North 5.8 mph - N/A   Clear
2:15 PM 53.6 °F - 19.4 °F 26% 30.29 in 10.0 mi NNW 8.1 mph - N/A   Clear
2:35 PM 53.6 °F - 17.6 °F 24% 30.29 in 10.0 mi North 3.5 mph - N/A   Clear
2:55 PM 55.4 °F - 15.8 °F 21% 30.29 in 10.0 mi North 6.9 mph - N/A   Clear
3:15 PM 55.4 °F - 17.6 °F 23% 30.29 in 10.0 mi NE 4.6 mph - N/A   Clear
3:35 PM 55.4 °F - 17.6 °F 23% 30.30 in 10.0 mi North 3.5 mph - N/A   Clear
3:55 PM 55.4 °F - 21.2 °F 26% 30.30 in 10.0 mi NNW 10.4 mph - N/A   Clear
4:15 PM 53.6 °F - 21.2 °F 28% 30.31 in 10.0 mi NNW 6.9 mph - N/A   Clear
4:35 PM 53.6 °F - 19.4 °F 26% 30.31 in 10.0 mi North 5.8 mph - N/A   Clear
4:55 PM 51.8 °F - 19.4 °F 28% 30.31 in 10.0 mi North 4.6 mph - N/A   Clear
5:15 PM 51.8 °F - 19.4 °F 28% 30.32 in 10.0 mi North 4.6 mph - N/A   Clear
5:35 PM 50.0 °F - 21.2 °F 32% 30.33 in 10.0 mi North 4.6 mph - N/A   Clear
5:55 PM 48.2 °F - 23.0 °F 37% 30.33 in 10.0 mi North 4.6 mph - N/A   Clear
6:15 PM 48.2 °F - 23.0 °F 37% 30.34 in 10.0 mi North 3.5 mph - N/A   Clear
6:35 PM 48.2 °F - 23.0 °F 37% 30.34 in 10.0 mi North 3.5 mph - N/A   Clear
6:55 PM 48.2 °F - 21.2 °F 34% 30.34 in 10.0 mi North 3.5 mph - N/A   Clear
7:15 PM 48.2 °F - 21.2 °F 34% 30.35 in 10.0 mi NNE 3.5 mph - N/A   Clear
7:35 PM 48.2 °F - 21.2 °F 34% 30.35 in 10.0 mi NE 3.5 mph - N/A   Clear
7:55 PM 48.2 °F - 21.2 °F 34% 30.35 in 10.0 mi Calm Calm - N/A   Clear
8:15 PM 46.4 °F 45.2 °F 23.0 °F 40% 30.36 in 10.0 mi North 3.5 mph - N/A   Clear
8:35 PM 46.4 °F 44.3 °F 23.0 °F 40% 30.37 in 10.0 mi North 4.6 mph - N/A   Clear
8:55 PM 44.6 °F 42.2 °F 24.8 °F 46% 30.38 in 10.0 mi North 4.6 mph - N/A   Clear
9:15 PM 44.6 °F 42.2 °F 24.8 °F 46% 30.38 in 10.0 mi NNE 4.6 mph - N/A   Clear
9:35 PM 44.6 °F 42.2 °F 26.6 °F 49% 30.39 in 10.0 mi NNE 4.6 mph - N/A   Clear
9:55 PM 44.6 °F 41.4 °F 26.6 °F 49% 30.39 in 10.0 mi North 5.8 mph - N/A   Clear
10:15 PM 42.8 °F 40.1 °F 26.6 °F 53% 30.39 in 10.0 mi NNE 4.6 mph - N/A   Clear
10:35 PM 42.8 °F 41.1 °F 26.6 °F 53% 30.40 in 10.0 mi NNE 3.5 mph - N/A   Clear
10:55 PM 42.8 °F 41.1 °F 26.6 °F 53% 30.40 in 10.0 mi NNE 3.5 mph - N/A   Clear
11:15 PM 42.8 °F 41.1 °F 26.6 °F 53% 30.40 in 10.0 mi NNE 3.5 mph - N/A   Clear
11:35 PM 42.8 °F 40.1 °F 26.6 °F 53% 30.40 in 10.0 mi North 4.6 mph - N/A   Clear
11:55 PM 42.8 °F - 28.4 °F 57% 30.41 in 10.0 mi Calm Calm - N/A   Clear